Regional Weather Roundup
Issued by NWS

Home | Current Version | Previous Version | Text Only | Print | Product List | Glossary Off
Versions: 1 2 3 4 5 6 7 8 9 10 11 12 13 14 15 16 17 18 19 20 21 22 23 24 25 26 27 28 29 30 31 32 33 34 35 36 37 38 39 40 41 42 43 44 45 46 47 48 49 50

000
ASUS43 KFSD 162010
RWRSD

WEATHER ROUNDUP FOR SOUTH DAKOTA
NATIONAL WEATHER SERVICE SIOUX FALLS SD
300 PM CDT WED AUG 16 2017

NOTE: "FAIR" INDICATES FEW OR NO CLOUDS BELOW 12,000 FEET WITH NO
SIGNIFICANT WEATHER AND/OR OBSTRUCTIONS TO VISIBILITY.


SDZ001>005-009-010-012>017-162100-
NORTHWEST AND NORTH CENTRAL SOUTH DAKOTA

CITY           SKY/WX    TMP DP  RH WIND       PRES   REMARKS
BUFFALO          N/A     80  50  34 W6        29.93F
FAITH            N/A     79  47  32 NE17G25   29.96S
MOBRIDGE       CLOUDY    71  62  73 N10       29.89S
$$

SDZ012>016-024>037-041>051-057-063-072>074-162100-
SOUTHWEST AND SOUTH CENTRAL SOUTH DAKOTA

CITY           SKY/WX    TMP DP  RH WIND       PRES   REMARKS
RAPID CTY ARPT MOSUNNY   77  49  37 N10G20    30.01F
PIERRE         CLOUDY    67  59  75 N12       29.90S
CUSTER         SUNNY     69  39  33 E5        30.11F
PHILIP         CLOUDY    79  55  43 N15G22    29.94F
PINE RIDGE     CLOUDY    76  55  48 N12G17    30.01F
SPEARFISH      FAIR      75  45  33 VRB7      30.06S
WINNER         LGT RAIN  64  62  93 NW15      29.91S FOG
$$

SDZ004>011-016>023-039-040-162100-
NORTHEAST SOUTH DAKOTA

CITY           SKY/WX    TMP DP  RH WIND       PRES   REMARKS
ABERDEEN       CLOUDY    69  66  90 N9        29.83S
WATERTOWN      LGT RAIN  67  66  97 NE7       29.80F FOG
BROOKINGS      RAIN      66  65  96 N5        29.80F
SISSETON         N/A     69  68  96 NE3       29.81F
$$

SDZ017-020-022-023-036>040-048>070-162100-
SOUTHEAST SOUTH DAKOTA

CITY           SKY/WX    TMP DP  RH WIND       PRES   REMARKS
SIOUX FALLS    LGT RAIN  69  67  93 N13       29.73F
HURON          LGT RAIN  67  67 100 NW12      29.80F
CHAMBERLAIN    LGT RAIN  66  66 100 W14       29.88R
MITCHELL       LGT RAIN  69  66  90 NW8       29.80F
YANKTON        LGT RAIN  67  65  93 NW15      29.77F
$$

ABBREVIATIONS USED IN REMARKS
   TC - TEMPERATURE IN CELSIUS
  WCI - WIND CHILL INDEX
   HX - HEAT INDEX
  VSB - VISIBILITY




USA.gov is the U.S. government's official web portal to all federal, state and local government web resources and services.